Weather History for KODO - October, 2013

Change the Weather History Date:

Tuesday, October 8, 2013

  Actual Average (KMAF) Record (KMAF)
Temperature  
Mean Temperature 68 °F 68 °F  
Max Temperature 86 °F 80 °F 100 °F (1979)
Min Temperature 51 °F 55 °F 33 °F (1976)
Degree Days  
Heating Degree Days 0 2  
Month to date heating degree days 12  
Since 1 July heating degree days 23  
Cooling Degree Days 2 4  
Month to date cooling degree days 41  
Year to date cooling degree days 2220  
Growing Degree Days 18 (Base 50)    
Moisture  
Dew Point 29 °F    
Average Humidity 24    
Maximum Humidity 43    
Minimum Humidity 12    
Precipitation  
Precipitation 0.00 in 0.07 in 1.31 in (2011)
Month to date precipitation 0.53  
Year to date precipitation 12.11  
Snow  
Snow 0.00 in - - ()
Month to date snowfall  
Since 1 July snowfall  
Since 1 September snowfall  
Snow Depth -    
Sea Level Pressure  
Sea Level Pressure 29.92 in    
Wind  
Wind Speed 9 mph (South)    
Max Wind Speed 20 mph    
Max Gust Speed 28 mph    
Visibility 10 miles    
Events      
T = Trace of Precipitation, MM = Missing Value Source: NWS Daily Summary

Daily Weather History Graph

Daily Weather History Graph

Search for Another Location

Airport or City:

Trip Planner

Search our weather history database for the weather conditions in past years. The results will help you decide how hot, cold, wet, or windy it might be!

Date:

Astronomy

Oct. 08, 2013 Rise Set
Actual Time 7:48 AM CDT 7:25 PM CDT
Civil Twilight 7:23 AM CDT 7:49 PM CDT
Nautical Twilight 6:55 AM CDT 8:17 PM CDT
Astronomical Twilight 6:27 AM CDT 8:46 PM CDT
Moon 11:31 AM CDT (10/8) 10:17 PM CDT (10/8)
Length of Visible Light 12h 25m
Length of Day
11h 36m
Waxing Crescent, 16% of the Moon is Illuminated
Oct 8
Waxing Crescent
Oct 11
First Quarter
Oct 18
Full
Oct 26
Last Quarter
Nov 3
New

Hourly Weather History & Observations

Time (CDT) Temp. Dew Point Humidity Pressure Visibility Wind Dir Wind Speed Gust Speed Precip Events Conditions
12:53 AM 64.9 °F 27.0 °F 24% 30.00 in 10.0 mi South 8.1 mph - N/A   Clear
1:53 AM 61.0 °F 27.0 °F 27% 29.99 in 10.0 mi South 3.5 mph - N/A   Clear
2:53 AM 59.0 °F 28.0 °F 31% 29.99 in 10.0 mi SSW 5.8 mph - N/A   Clear
3:53 AM 59.0 °F 28.0 °F 31% 29.98 in 10.0 mi South 3.5 mph - N/A   Clear
4:53 AM 57.0 °F 27.0 °F 32% 29.97 in 10.0 mi SSW 4.6 mph - N/A   Clear
5:53 AM 55.9 °F 28.0 °F 34% 29.97 in 10.0 mi South 3.5 mph - N/A   Clear
6:53 AM 55.0 °F 28.9 °F 37% 29.97 in 10.0 mi Calm Calm - N/A   Clear
7:53 AM 51.1 °F 28.9 °F 43% 29.99 in 10.0 mi Calm Calm - N/A   Clear
8:53 AM 60.1 °F 30.0 °F 32% 29.98 in 10.0 mi SSE 4.6 mph - N/A   Clear
9:53 AM 69.1 °F 28.0 °F 22% 29.98 in 10.0 mi SSE 11.5 mph - N/A   Clear
10:53 AM 73.9 °F 28.9 °F 19% 29.98 in 10.0 mi South 19.6 mph 27.6 mph N/A   Clear
11:53 AM 78.1 °F 28.0 °F 16% 29.96 in 10.0 mi South 15.0 mph - N/A   Clear
12:53 PM 79.0 °F 24.1 °F 13% 29.94 in 10.0 mi South 13.8 mph - N/A   Clear
1:53 PM 82.0 °F 25.0 °F 12% 29.91 in 10.0 mi South 10.4 mph - N/A   Clear
2:53 PM 84.0 °F 25.0 °F 12% 29.87 in 10.0 mi South 13.8 mph 21.9 mph N/A   Clear
3:53 PM 84.9 °F 26.1 °F 12% 29.85 in 10.0 mi SSW 13.8 mph 21.9 mph N/A   Clear
4:53 PM 84.0 °F 27.0 °F 13% 29.84 in 10.0 mi South 18.4 mph 23.0 mph N/A   Clear
5:53 PM 84.0 °F 30.0 °F 14% 29.83 in 10.0 mi SSE 16.1 mph 23.0 mph N/A   Clear
6:53 PM 80.1 °F 30.9 °F 17% 29.83 in 10.0 mi SSE 18.4 mph - N/A   Clear
7:53 PM 75.9 °F 32.0 °F 20% 29.85 in 10.0 mi SSE 15.0 mph 23.0 mph N/A   Clear
8:53 PM 73.0 °F 33.1 °F 23% 29.85 in 10.0 mi SSE 11.5 mph - N/A   Clear
9:53 PM 71.1 °F 36.0 °F 28% 29.85 in 10.0 mi SSE 15.0 mph - N/A   Clear
10:53 PM 69.1 °F 37.0 °F 31% 29.85 in 10.0 mi SSE 17.3 mph - N/A   Clear
11:53 PM 66.9 °F 37.0 °F 33% 29.85 in 10.0 mi SSE 16.1 mph 25.3 mph N/A   Clear